User: anonymous   Login
Location: Hepcat Sky Observatory
(29.9800°N, 95.6500°W)
Time: 16:23:54
(UTC-06:00)
Language:

Cosmos 2151 Rocket - Orbit

View from above orbital plane
View from above orbital plane
View from above satellite
View from above satellite

Ground track
Ground track

The orbit data is extracted from the following two-line orbital elements,

1 21423U 91042B   15029.18176696  .00000367  00000-0  46027-4 0  9190
2 21423 082.4917 054.3102 0017171 214.9688 217.7411 14.79394811273940
Epoch (UTC): 29 January 2015 04:21:44
Eccentricity: 0.0017171
inclination: 82.4917°
perigee height: 619 km
apogee height: 643 km
right ascension of ascending node: 54.3102°
argument of perigee: 214.9688°
revolutions per day: 14.79394811
mean anomaly at epoch: 217.7411°
orbit number at epoch: 27394

The dashed part of the orbit path shows where the satellite is in the earth's shadow,  

DLR